{"data":{"norad_id":65344,"intl_designator":"2025-189X","name":"STARLINK-35088","alt_names":[],"object_type":"PAYLOAD","status":"ACTIVE","operator":null,"country":"US","launch_date":"2025-08-27","launch_site_code":"AFETR","launch_vehicle":null,"mission":null,"orbit_class":"UNKNOWN","rcs_meters":null,"size_class":null,"mass_kg":null,"dimensions":null,"purposes":["comms"],"wikipedia_slug":null,"has_3d_model":false,"image_url":null,"decayed_at":null,"tle_current":{"epoch":"2026-05-25T04:15:30.325248Z","epoch_age_seconds":70276,"freshness":"FRESH","line1":"1 65344U 25189X   26145.17743432  .00013851  00000+0  47876-3 0  9998","line2":"2 65344  53.1580 211.7300 0001162  89.7472 270.3662 15.30210013 42825","mean_motion":15.30210013,"eccentricity":0.0001162,"inclination_deg":53.158,"raan_deg":211.73,"arg_perigee_deg":89.7472,"mean_anomaly_deg":270.3662,"bstar":0.00047876,"rev_number":4282,"period_min":94.104729923761,"perigee_km":474.38881653275,"apogee_km":475.98152860566,"semimajor_km":6853.3221725692,"source":"CELESTRAK","updated_at":"2026-05-25T13:38:20.762803Z"}}}